sat.trackr.live / text

‹ back to catalog

SITRO-AIS-61

NORAD 67297 · 2025-313BB

PAYLOAD ACTIVE UNKNOWN

§ Identity

Operator
Country
CIS
Launch date
2025-12-28
Launch site
VOSTO
Launch vehicle
Mass (kg)
RCS (m²)

External: N2YO · Heavens-Above · Gunter

§ Orbital elements

Epoch: 2026-05-25T03:51:41.003136Z

Period
94.44 min
Inclination
97.3947°
Eccentricity
0.0009979
Mean motion
15.24750726 rev/d
Perigee alt
484.7 km
Apogee alt
498.4 km
Semi-major
6,869.7 km
B*
3.9602e-4
RAAN
220.5818°
Arg perigee
83.9441°
Mean anomaly
276.2934°
Rev number
2,247

§ Raw data

SITRO-AIS-611 67297U 25313BB  26145.16089124  .00009755  00000+0  39602-3 0  99922 67297  97.3947 220.5818 0009979  83.9441 276.2934 15.24750726 22478

JSON: /api/v1/satellites/67297 · /tle

For live sub-satellite position, see the globe view (requires WebGL).

§ Visibility from observer

Set your observer location to see the next 7 days of passes ≥ 10°. The values pass through the URL so the page stays shareable.

No JS? Fill the form by hand. The geolocation button needs JavaScript.